一网星座-0663星 (ONEWEB-0663)

导读 | 豆包AI

ONEWEB-0663是英国OneWeb公司的第二代低轨宽带卫星,于2023年3月9日由SpaceX猎鹰9号火箭从美国佛罗里达州卡纳纳维拉尔角发射升空,属于OneWeb星座的第17次组网发射任务中的一颗卫星。卫星运行于1200公里高度的极轨轨道,工作在Ku波段,为OneWeb提供全球互联网接入服务,助力完成OneWeb近600颗卫星的组网建设。

基本信息
目录编号:
55823
目录名称:
ONEWEB-0663
国际标识:
2023-029AD
轨道中心:
EARTH
卫星名称:
一网星座-0663星
卫星全名:
一网星座-0663星 (ONEWEB-0663)
卫星状态:
在轨 (已飞行1101 天)
发射日期:
2023-03-09 UTC
国别 :
英国 (GB)
星等 :
--
轨道信息
数据来源 国际轨道数据 AOE轨道数据
星历时间 2026-03-14T04:48:35+0800
13小时前
查看轨道信息
2026-03-14T02:00:00+0800
16小时前
查看轨道信息
半长轴 7558.637km 7559.553km
偏心率 0.0002634 0.0002507
轨道倾角 87.917° 87.918°
近地点辐角 77.118° 99.292°
升交点赤经 293.534° 293.557°
平近点角 283.025° 64.302°
近地点 1178.509km 1179.52km
远地点 1182.491km 1183.312km
周期 109.000分钟 109.019分钟
每日圈数 13.211056 13.208657
详细信息
平衡模式:
三轴稳定
覆盖范围:
全球
运营商:
一网卫星公司
运营商所在国:
英国
制造商(研发单位):
一网卫星公司
制造商所在国:
英国
使用方式:
暂无
卫星简介
OneWeb卫星网络由648颗重约125公斤的微型卫星组成,运行在1200公里的轨道上。 每颗卫星都能够提供至少每秒8千兆位的吞吐量,以使用其高吞吐量的Ku频段有效载荷为家庭和移动平台提供互联网接入。该卫星仍在工作。
2D轨道图
3D轨道图
轨道高度分析图
轨道倾角分析图
轨道综合分析图
查看轨道综合分析图